timestamp,wind_dir_avg,wind_spd_avg,wind_spd_max_dir,wind_spd_gust,battery_voltage,lat,long
2022-11-11 00:04:00+00:00,296.0,9.08,288.0,12.31,12.33,47.59359,-54.27349
2022-11-11 00:14:00+00:00,295.0,7.42,295.0,8.91,12.33,47.59359,-54.27349
2022-11-11 00:24:00+00:00,298.0,9.17,286.0,12.85,12.33,47.59359,-54.27349
2022-11-11 00:34:00+00:00,301.0,9.11,299.0,14.72,12.33,47.59359,-54.27349
2022-11-11 00:44:00+00:00,300.0,7.8,305.0,9.77,12.33,47.59359,-54.27349
2022-11-11 00:54:00+00:00,298.0,7.95,297.0,8.96,12.33,47.59359,-54.27349
2022-11-11 01:04:00+00:00,288.0,7.62,296.0,8.83,12.33,47.59359,-54.27349
2022-11-11 01:14:00+00:00,289.0,5.26,280.0,6.64,12.25,47.59359,-54.27349
2022-11-11 01:24:00+00:00,289.0,6.52,291.0,7.92,12.25,47.59359,-54.27349
2022-11-11 01:34:00+00:00,294.0,6.08,301.0,7.1,12.25,47.59359,-54.27349
2022-11-11 01:44:00+00:00,296.0,4.28,295.0,5.62,12.25,47.59359,-54.27349
2022-11-11 01:54:00+00:00,278.0,3.81,277.0,5.06,12.25,47.59359,-54.27349
2022-11-11 02:04:00+00:00,275.0,4.21,261.0,6.13,12.25,47.59359,-54.27349
2022-11-11 02:14:00+00:00,297.0,4.89,292.0,5.88,12.25,47.59359,-54.27349
2022-11-11 02:24:00+00:00,292.0,4.6,294.0,5.41,12.25,47.59359,-54.27349
2022-11-11 02:34:00+00:00,274.0,5.3,272.0,5.94,12.25,47.59359,-54.27349
2022-11-11 02:44:00+00:00,295.0,6.86,296.0,8.35,12.25,47.59359,-54.27349
2022-11-11 02:54:00+00:00,291.0,5.55,279.0,6.9,12.25,47.59359,-54.27349
2022-11-11 03:04:00+00:00,285.0,6.04,292.0,7.47,12.25,47.59359,-54.27349
2022-11-11 03:14:00+00:00,279.0,5.03,268.0,6.16,12.25,47.59359,-54.27349
2022-11-11 03:24:00+00:00,270.0,3.73,287.0,5.77,12.25,47.59359,-54.27349
2022-11-11 03:34:00+00:00,279.0,5.19,280.0,6.04,12.25,47.59359,-54.27349
2022-11-11 03:44:00+00:00,277.0,4.07,271.0,6.38,12.25,47.59359,-54.27349
2022-11-11 03:54:00+00:00,274.0,4.36,276.0,5.42,12.25,47.59359,-54.27349
2022-11-11 04:04:00+00:00,269.0,3.62,281.0,6.37,12.25,47.59359,-54.27349
2022-11-11 04:14:01+00:00,262.0,3.92,265.0,4.71,12.25,47.59359,-54.27349
2022-11-11 04:24:01+00:00,272.0,4.31,283.0,6.06,12.25,47.59359,-54.27349
2022-11-11 04:34:01+00:00,290.0,4.58,286.0,5.83,12.25,47.59359,-54.27349
2022-11-11 04:44:01+00:00,301.0,4.51,301.0,5.53,12.25,47.59359,-54.27349
2022-11-11 04:54:01+00:00,292.0,5.56,293.0,6.98,12.25,47.59359,-54.27349
2022-11-11 05:04:01+00:00,291.0,5.12,295.0,6.19,12.25,47.59359,-54.27349
2022-11-11 05:14:01+00:00,311.0,4.5,315.0,5.17,12.17,47.59359,-54.27349
2022-11-11 05:24:01+00:00,309.0,4.42,302.0,5.46,12.17,47.59359,-54.27349
2022-11-11 05:34:01+00:00,289.0,4.39,286.0,5.64,12.17,47.59359,-54.27349
2022-11-11 05:44:01+00:00,298.0,4.43,307.0,5.45,12.17,47.59359,-54.27349
2022-11-11 05:54:01+00:00,307.0,4.07,297.0,5.07,12.17,47.59359,-54.27349
2022-11-11 06:04:01+00:00,297.0,6.15,294.0,7.87,12.17,47.59359,-54.27349
2022-11-11 06:14:00+00:00,281.0,4.2,283.0,5.02,12.17,47.59359,-54.27349
2022-11-11 06:24:00+00:00,288.0,6.28,290.0,7.27,12.17,47.59359,-54.27349
2022-11-11 06:34:00+00:00,295.0,4.45,296.0,5.51,12.17,47.59359,-54.27349
2022-11-11 06:44:00+00:00,281.0,5.07,281.0,7.19,12.17,47.59359,-54.27349
2022-11-11 06:54:00+00:00,286.0,5.5,279.0,6.58,12.17,47.59359,-54.27349
2022-11-11 07:04:00+00:00,280.0,5.29,280.0,5.97,12.17,47.59359,-54.27349
2022-11-11 07:14:01+00:00,290.0,5.75,288.0,6.85,12.17,47.59359,-54.27349
2022-11-11 07:24:01+00:00,295.0,4.51,293.0,5.55,12.17,47.59359,-54.27349
2022-11-11 07:34:01+00:00,268.0,4.63,261.0,5.42,12.17,47.59359,-54.27349
2022-11-11 07:44:01+00:00,283.0,3.92,271.0,4.52,12.17,47.59359,-54.27349
2022-11-11 07:54:01+00:00,275.0,4.74,273.0,6.01,12.17,47.59359,-54.27349
2022-11-11 08:04:01+00:00,275.0,4.21,281.0,5.52,12.17,47.59359,-54.27349
2022-11-11 08:14:01+00:00,271.0,3.51,270.0,4.57,12.17,47.59359,-54.27349
2022-11-11 08:24:01+00:00,278.0,5.29,284.0,6.18,12.17,47.59359,-54.27349
2022-11-11 08:34:01+00:00,271.0,3.81,276.0,4.71,12.17,47.59359,-54.27349
2022-11-11 08:44:01+00:00,288.0,4.99,291.0,5.82,12.17,47.59359,-54.27349
2022-11-11 08:54:01+00:00,284.0,4.08,280.0,5.03,12.17,47.59359,-54.27349
2022-11-11 09:04:01+00:00,270.0,5.79,269.0,6.43,12.17,47.59359,-54.27349
2022-11-11 09:14:00+00:00,278.0,5.35,278.0,6.67,12.17,47.59359,-54.27349
2022-11-11 09:24:00+00:00,288.0,5.34,283.0,6.1,12.17,47.59359,-54.27349
2022-11-11 09:34:00+00:00,281.0,4.83,285.0,5.45,12.17,47.59359,-54.27349
2022-11-11 09:44:00+00:00,287.0,3.82,286.0,5.31,12.17,47.59359,-54.27349
2022-11-11 09:54:00+00:00,279.0,3.35,274.0,6.5,12.17,47.59359,-54.27349
2022-11-11 10:04:00+00:00,274.0,3.61,272.0,4.68,12.17,47.59359,-54.27349
2022-11-11 10:14:00+00:00,278.0,3.61,268.0,4.55,12.17,47.59359,-54.27349
2022-11-11 10:24:00+00:00,269.0,4.11,268.0,4.79,12.17,47.59359,-54.27349
2022-11-11 10:34:00+00:00,273.0,4.45,278.0,5.64,12.17,47.59359,-54.27349
2022-11-11 10:44:00+00:00,278.0,3.97,290.0,4.99,12.17,47.59359,-54.27349
2022-11-11 10:54:00+00:00,283.0,4.92,285.0,5.68,12.17,47.59359,-54.27349
2022-11-11 11:04:00+00:00,297.0,5.16,301.0,5.7,12.17,47.59359,-54.27349
2022-11-11 11:14:00+00:00,305.0,5.52,301.0,6.47,12.17,47.59359,-54.27349
2022-11-11 11:24:00+00:00,304.0,5.65,302.0,6.23,12.17,47.59359,-54.27349
2022-11-11 11:34:00+00:00,306.0,5.05,312.0,6.37,12.17,47.59359,-54.27349
2022-11-11 11:44:00+00:00,305.0,5.06,306.0,6.03,12.17,47.59359,-54.27349
2022-11-11 11:54:00+00:00,294.0,5.03,291.0,5.63,12.17,47.59359,-54.27349
2022-11-11 12:04:00+00:00,317.0,4.25,303.0,6.12,12.17,47.59359,-54.27349
2022-11-11 12:14:00+00:00,314.0,4.12,298.0,5.95,13.05,47.59359,-54.27349
2022-11-11 12:24:00+00:00,318.0,4.39,315.0,5.55,13.05,47.59359,-54.27349
2022-11-11 12:34:00+00:00,302.0,3.04,293.0,4.57,13.05,47.59359,-54.27349
2022-11-11 12:44:00+00:00,308.0,3.16,277.0,5.34,13.05,47.59359,-54.27349
2022-11-11 12:54:00+00:00,313.0,2.82,292.0,4.64,13.05,47.59359,-54.27349
2022-11-11 13:04:00+00:00,333.0,2.36,315.0,2.75,13.05,47.59359,-54.27349
2022-11-11 13:14:00+00:00,331.0,3.4,305.0,5.13,13.84,47.59359,-54.27349
2022-11-11 13:24:00+00:00,334.0,3.3,305.0,5.36,13.84,47.59359,-54.27349
2022-11-11 13:34:00+00:00,320.0,4.65,302.0,6.1,13.84,47.59359,-54.27349
2022-11-11 13:44:00+00:00,306.0,4.31,297.0,5.78,13.84,47.59359,-54.27349
2022-11-11 13:54:00+00:00,308.0,5.06,308.0,5.98,13.84,47.59359,-54.27349
2022-11-11 14:04:00+00:00,308.0,4.76,312.0,5.49,13.84,47.59359,-54.27349
2022-11-11 14:14:00+00:00,305.0,5.3,299.0,6.02,13.84,47.59359,-54.27349
2022-11-11 14:24:00+00:00,298.0,4.75,300.0,5.66,13.84,47.59359,-54.27349
2022-11-11 14:34:00+00:00,284.0,4.41,280.0,5.33,13.84,47.59359,-54.27349
2022-11-11 14:44:00+00:00,300.0,4.38,305.0,6.15,13.84,47.59359,-54.27349
2022-11-11 14:54:00+00:00,305.0,3.97,299.0,5.24,13.84,47.59359,-54.27349
2022-11-11 15:04:00+00:00,301.0,4.21,297.0,6.61,13.84,47.59359,-54.27349
2022-11-11 15:14:00+00:00,313.0,5.36,316.0,6.69,13.76,47.59359,-54.27349
2022-11-11 15:24:00+00:00,324.0,5.27,326.0,5.85,13.76,47.59359,-54.27349
2022-11-11 15:34:00+00:00,293.0,4.11,291.0,4.83,13.76,47.59359,-54.27349
2022-11-11 15:44:00+00:00,301.0,4.21,305.0,6.29,13.76,47.59359,-54.27349
2022-11-11 15:54:00+00:00,307.0,6.17,305.0,7.26,13.76,47.59359,-54.27349
2022-11-11 16:04:00+00:00,305.0,5.0,298.0,6.38,13.76,47.59359,-54.27349
2022-11-11 16:14:01+00:00,307.0,4.06,325.0,5.27,13.84,47.59359,-54.27349
2022-11-11 16:24:01+00:00,307.0,5.15,305.0,5.72,13.84,47.59359,-54.27349
2022-11-11 16:34:01+00:00,305.0,4.57,303.0,5.33,13.84,47.59359,-54.27349
2022-11-11 16:44:01+00:00,296.0,4.45,295.0,5.06,13.84,47.59359,-54.27349
2022-11-11 16:54:01+00:00,6.0,3.93,4.0,4.75,13.84,47.59359,-54.27349
2022-11-11 17:04:01+00:00,346.0,5.73,329.0,7.41,13.84,47.59359,-54.27349
2022-11-11 17:14:01+00:00,352.0,7.02,352.0,8.03,13.84,47.59359,-54.27349
2022-11-11 17:24:01+00:00,342.0,5.53,318.0,6.66,13.84,47.59359,-54.27349
2022-11-11 17:34:01+00:00,328.0,6.35,323.0,7.42,13.84,47.59359,-54.27349
2022-11-11 17:44:01+00:00,332.0,4.0,313.0,5.32,13.84,47.59359,-54.27349
2022-11-11 17:54:01+00:00,322.0,4.16,311.0,5.04,13.84,47.59359,-54.27349
2022-11-11 18:04:01+00:00,344.0,4.33,349.0,4.96,13.84,47.59359,-54.27349
2022-11-11 18:14:00+00:00,324.0,4.49,325.0,5.21,13.84,47.59359,-54.27349
2022-11-11 18:24:00+00:00,335.0,3.31,332.0,3.73,13.84,47.59359,-54.27349
2022-11-11 18:34:00+00:00,307.0,3.61,294.0,4.25,13.84,47.59359,-54.27349
2022-11-11 18:44:00+00:00,315.0,3.51,311.0,4.46,13.84,47.59359,-54.27349
2022-11-11 18:54:00+00:00,319.0,3.82,322.0,4.29,13.84,47.59359,-54.27349
2022-11-11 19:04:00+00:00,319.0,2.85,323.0,3.73,13.84,47.59359,-54.27349
2022-11-11 19:14:00+00:00,304.0,2.99,306.0,3.62,13.05,47.59359,-54.27349
2022-11-11 19:24:00+00:00,302.0,2.16,296.0,2.77,13.05,47.59359,-54.27349
2022-11-11 19:34:00+00:00,308.0,2.68,319.0,3.31,13.05,47.59359,-54.27349
2022-11-11 19:44:00+00:00,334.0,2.96,330.0,3.97,13.05,47.59359,-54.27349
2022-11-11 19:54:00+00:00,353.0,3.83,347.0,4.28,13.05,47.59359,-54.27349
2022-11-11 20:04:00+00:00,38.0,7.34,38.0,8.32,13.05,47.59359,-54.27349
2022-11-11 20:14:00+00:00,39.0,8.15,51.0,9.59,12.65,47.59359,-54.27349
2022-11-11 20:24:00+00:00,44.0,6.78,53.0,8.31,12.65,47.59359,-54.27349
2022-11-11 20:34:00+00:00,51.0,5.66,44.0,6.8,12.65,47.59359,-54.27349
2022-11-11 20:44:00+00:00,52.0,5.84,54.0,6.64,12.65,47.59359,-54.27349
2022-11-11 20:54:00+00:00,56.0,6.06,49.0,6.79,12.65,47.59359,-54.27349
2022-11-11 21:04:00+00:00,45.0,5.95,46.0,7.36,12.65,47.59359,-54.27349
2022-11-11 21:14:00+00:00,55.0,6.04,62.0,7.38,12.57,47.59359,-54.27349
2022-11-11 21:24:00+00:00,40.0,6.26,44.0,7.53,12.57,47.59359,-54.27349
2022-11-11 21:34:00+00:00,53.0,5.94,52.0,7.07,12.57,47.59359,-54.27349
2022-11-11 21:44:00+00:00,58.0,6.31,54.0,7.41,12.57,47.59359,-54.27349
2022-11-11 21:54:00+00:00,40.0,6.34,44.0,7.03,12.57,47.59359,-54.27349
2022-11-11 22:04:00+00:00,53.0,6.17,47.0,7.13,12.57,47.59359,-54.27349
2022-11-11 22:14:00+00:00,45.0,6.61,42.0,7.33,12.49,47.59359,-54.27349
2022-11-11 22:24:00+00:00,58.0,5.66,60.0,6.81,12.49,47.59359,-54.27349
2022-11-11 22:34:00+00:00,41.0,4.84,43.0,6.28,12.49,47.59359,-54.27349
2022-11-11 22:44:00+00:00,55.0,5.41,58.0,6.31,12.49,47.59359,-54.27349
2022-11-11 22:54:00+00:00,62.0,3.98,67.0,5.53,12.49,47.59359,-54.27349
2022-11-11 23:04:00+00:00,55.0,4.04,54.0,4.84,12.49,47.59359,-54.27349
2022-11-11 23:14:00+00:00,69.0,3.94,69.0,5.65,12.49,47.59359,-54.27349
2022-11-11 23:24:00+00:00,63.0,3.95,67.0,5.09,12.49,47.59359,-54.27349
2022-11-11 23:34:00+00:00,67.0,3.83,55.0,5.31,12.49,47.59359,-54.27349
2022-11-11 23:44:00+00:00,73.0,2.89,73.0,5.46,12.49,47.59359,-54.27349
2022-11-11 23:54:00+00:00,103.0,2.1,125.0,3.63,12.49,47.59359,-54.27349
